TIME,DELAY(SENSOR),PRES,OXYGEN,RAWTEMP,T(OPTODE),TCPHASE,FLUOR,BETA(BETA700),BETA(BETA412),BETA(BETA440),CDOM,C(CSC),ED(ED412.40),ED(ED444.00),ED(ED489.70),ED(ED554.30),LU(LU411.80),LU(LU443.40),LU(LU489.60),LU(LU554.10),COMP,TILTX,TILTY,CHECK
1357443631,5806,875.8499755859375000,47.2420196533203100,663.1754150390625000,4.5233759880065920,53.9708595275878900,53,99,85,80,81,15114,2147755273,2147421860,2148009764,2147871561,2147640841,2147056301,2148263131,2147195931,1825,4,13,32722
1357447227,5802,962.5399780273438000,52.0523109436035160,672.1267089843750000,4.2279191017150880,53.4185104370117200,52,99,88,79,81,15117,2147756141,2147422354,2148010020,2147874020,2147643382,2147058276,2148259419,2147196278,2952,4,13,62241
1357450827,5807,977.5800170898438000,50.7609100341796900,674.9088745117188000,4.1359000205993650,53.6279907226562500,52,102,88,78,81,15110,2147758262,2147418322,2148011739,2147873417,2147640804,2147049846,2148266441,2147194422,3158,4,13,55923
1357454427,5809,975.6199951171875000,49.8362083435058600,675.6688842773438000,4.1107501983642580,53.7629508972168000,52,99,85,79,81,15112,2147757065,2147423661,2148013184,2147872475,2147643675,2147059821,2148262738,2147193700,3207,4,13,11324
1357458027,5809,985.3499755859375000,49.7363204956054700,676.3068847656250000,4.0896301269531250,53.7823486328125000,52,98,86,78,81,15112,2147758820,2147422619,2148015021,2147872073,2147642852,2147056155,2148262774,2147196781,155,4,13,7465
1357461627,5807,992.7800292968750000,49.1565895080566400,674.7490234375000000,4.1411929130554200,53.8483886718750000,53,99,82,79,80,15112,2147758043,2147421494,2148012534,2147875757,2147644434,2147056356,2148260617,2147198564,2820,4,13,4484
1357465227,5808,997.8499755859375000,49.6703109741210940,674.4763183593750000,4.1502151489257810,53.7695808410644500,53,105,86,79,81,15085,2147761042,2147419803,2148011273,2147869860,2147644086,2147056950,2148263926,2147195520,1145,4,13,36910
1357468827,5810,1004.7899780273438000,50.4926795959472660,673.5792846679688000,4.1798877716064450,53.6473197937011700,52,98,85,79,80,15109,2147758116,2147422720,2148012452,2147874093,2147642806,2147056036,2148260470,2147197312,2385,4,13,58711
1357472427,5806,1005.7600097656250000,52.4378585815429700,672.7949829101562000,4.2058258056640625,53.3737182617187500,52,97,84,79,80,15111,2147755264,2147420717,2148009371,2147875090,2147642761,2147061513,2148261741,2147199442,300,4,13,39375
1357476027,5808,1002.4199829101562000,52.2698707580566400,672.9644775390625000,4.2002182006835940,53.4000205993652340,53,98,86,78,80,15109,2147757769,2147422171,2148011675,2147875328,2147646025,2147060580,2148256548,2147194020,275,4,13,37534
1357479627,5808,1001.4400024414062000,51.2581100463867200,673.0120849609375000,4.1986432075500490,53.5340309143066400,52,97,82,78,80,15107,2147753179,2147423963,2148008685,2147872374,2147640521,2147060114,2148263296,2147196379,3542,4,13,41639
1357483227,5809,1002.0599975585938000,52.1020202636718750,673.2332153320312000,4.1913318634033200,53.4247398376464840,52,98,88,79,80,15109,2147759917,2147425060,2148010102,2147876388,2147641846,2147057197,2148265654,2147193673,258,4,13,57900
1357486827,5803,998.8599853515625000,51.9152183532714840,673.4899291992188000,4.1828417778015140,53.4546012878418000,52,98,91,79,81,15109,2147757284,2147422573,2148009764,2147874880,2147643392,2147051401,2148264667,2147197156,466,4,13,344
1357490427,5811,1001.7700195312500000,48.7860794067382800,675.6702880859375000,4.1107039451599120,53.9124488830566400,51,98,88,80,81,15108,2147755894,2147422134,2148010651,2147871643,2147641197,2147051245,2148264109,2147195776,483,4,13,61253
1357494027,5808,1006.2399902343750000,52.1925392150878900,673.2617187500000000,4.1903920173645020,53.4104614257812500,52,97,81,78,81,15108,2147755574,2147420425,2148011145,2147871771,2147642294,2147055268,2148259757,2147193152,245,4,13,30056
1357497627,5808,996.6799926757812000,50.9242095947265600,674.5228881835938000,4.1486701965332030,53.6025695800781250,53,100,87,78,81,15097,2147756525,2147423305,2148010962,2147874358,2147643611,2147055579,2148263369,2147195053,209,4,13,11118
1357501227,5808,1003.7100219726562000,48.9041213989257800,675.5988769531250000,4.1130661964416500,53.8919296264648440,52,99,87,79,82,15096,2147757266,2147420827,2148014180,2147873883,2147643392,2147048932,2148263177,2147196836,196,4,13,32780
1357504827,5810,996.6900024414062000,49.4611892700195300,677.5291748046875000,4.0491561889648440,53.8389816284179700,52,99,85,78,81,15098,2147755940,2147425115,2148010413,2147875190,2147641636,2147051830,2148266706,2147195218,3435,4,13,24081
1357508427,5807,993.2199707031250000,48.7869491577148440,676.1085205078125000,4.0961971282958980,53.9128494262695300,52,101,85,79,81,15094,2147757028,2147421348,2148007680,2147874413,2147642130,2147055579,2148261348,2147194907,3482,4,13,8609
1357512027,5806,998.2899780273438000,48.8459892272949200,675.8217163085938000,4.1056919097900390,53.9026412963867200,53,102,88,79,81,15085,2147758381,2147427008,2148008073,2147874203,2147640685,2147050185,2148264301,2147197778,228,4,13,52350
1357515627,5811,1000.9400024414062000,48.9161109924316400,675.6145019531250000,4.1125512123107910,53.8932914733886700,52,103,87,78,81,15092,2147756617,2147424877,2148007433,2147874304,2147643145,2147055012,2148262171,2147194029,190,4,13,64088
1357519227,5805,999.2000122070312000,48.4360885620117200,675.1328735351562000,4.1284899711608890,53.9536399841308600,53,97,87,77,81,15091,2147758400,2147420672,2148007122,2147873691,2147644059,2147055323,2148262811,2147194066,116,4,13,31808
1357522827,5810,999.9000244140625000,48.7516098022460940,676.5753784179688000,4.0807418823242190,53.9266510009765600,52,100,88,80,81,14881,2147755218,2147423817,2148012909,2147874093,2147643483,2147051529,2148263908,2147194066,408,4,13,41015
1357526427,5809,1000.0100097656250000,48.9356994628906250,676.6987915039062000,4.0766558647155760,53.8983192443847660,52,99,86,78,80,15093,2147756214,2147423021,2148010605,2147874130,2147642980,2147053595,2148261888,2147195638,94,4,13,20455
1357530027,5810,1005.9199829101562000,48.4828491210937500,676.1087036132812000,4.0961909294128420,53.9549484252929700,53,98,84,79,80,15091,2147758336,2147423771,2148010194,2147872018,2147643446,2147055232,2148264246,2147195245,3165,4,13,39123
1357533627,5806,1007.0100097656250000,49.2192802429199200,676.7476806640625000,4.0750370025634770,53.8610496520996100,53,99,88,78,81,15089,2147757842,2147424475,2148011565,2147873307,2147644626,2147058989,2148259428,2147196726,3392,4,13,33553
1357537227,5811,994.9400024414062000,48.8390998840332000,677.2537841796875000,4.0582790374755860,53.9210395812988300,52,97,87,79,80,15086,2147756571,2147425206,2148011529,2147873307,2147641938,2147054829,2148257636,2147197019,100,4,13,43044
1357540827,5809,999.5300292968750000,50.1258316040039060,677.2739257812500000,4.0576109886169430,53.7453994750976560,52,99,89,78,81,15089,2147760621,2147425261,2148012196,2147873188,2147641609,2147053513,2148264045,2147196470,3552,4,13,1929
1357544427,5810,1006.4699707031250000,50.1936607360839840,677.4896240234375000,4.0504679679870605,53.7346382141113300,52,100,91,79,81,15087,2147758692,2147423268,2148010724,2147875721,2147642276,2147051181,2148258358,2147198637,3425,4,13,1864
1357548027,5808,1002.1599731445312000,49.1623611450195300,676.3897094726562000,4.0868887901306150,53.8683090209960940,53,99,84,79,82,15087,2147760777,2147423753,2148009947,2147872923,2147640685,2147055488,2148263049,2147196662,199,4,13,57730
1357551627,5808,1002.5499877929688000,48.7565307617187500,675.4683837890625000,4.1173839569091800,53.9089698791503900,53,99,89,78,80,15053,2147756818,2147422957,2148011867,2147874523,2147643410,2147056164,2148263917,2147197056,184,4,13,33191
1357555227,5806,1012.5100097656250000,48.6191902160644500,674.8991699218750000,4.1362209320068360,53.9236412048339840,52,99,83,79,81,15090,2147758107,2147423844,2148012452,2147870281,2147642002,2147051373,2148263049,2147196333,333,4,13,59275
1357558827,5756,1025.7099609375000000,47.7548103332519500,674.4995117187500000,4.1494460105896000,54.0425109863281250,53,101,89,77,80,15053,2147756425,2147422363,2148008128,2147875547,2147642550,2147056182,2148263798,2147194889,694,4,13,12468
1357562427,5809,1022.2399902343750000,48.4086990356445300,673.5722045898438000,4.1801218986511230,53.9389305114746100,53,104,83,78,81,15085,2147757165,2147423497,2148010605,2147873993,2147645302,2147053650,2148266240,2147200128,2820,4,13,44817
1357566027,5808,1019.7800292968750000,49.1697692871093750,673.3878784179688000,4.1862158775329590,53.8308601379394500,52,99,92,80,81,15037,2147755830,2147423570,2148008155,2147876745,2147641270,2147061476,2148263945,2147196022,3139,4,13,54024
1357569627,5805,1013.8499755859375000,48.1335296630859400,673.8975830078125000,4.1693568229675290,53.9760818481445300,52,96,88,79,81,15032,2147758921,2147423533,2148010221,2147872896,2147641627,2147060845,2148261211,2147196946,36,4,13,48271
1357573227,5811,1006.2299804687500000,48.2810707092285160,675.3853759765625000,4.1201310157775880,53.9732704162597660,52,99,87,77,81,15034,2147758985,2147426496,2148010358,2147874633,2147643218,2147059904,2148262555,2147198857,6,4,13,7757
1357576827,5808,1005.0700073242188000,48.4706687927246100,676.7506713867188000,4.0749359130859375,53.9647903442382800,52,100,85,80,80,15038,2147757193,2147424219,2148009426,2147874230,2147644480,2147057929,2148265270,2147193627,379,4,13,7311
1357580427,5808,1011.5000000000000000,49.1623306274414060,676.5347290039062000,4.0820879936218260,53.8693809509277340,51,98,86,78,81,15035,2147763684,2147425590,2148011757,2147874294,2147641124,2147057481,2148262784,2147197851,3084,4,13,64500
1357584027,5807,1009.9199829101562000,49.0004882812500000,676.1378784179688000,4.0952219963073730,53.8833312988281250,52,98,89,79,80,15036,2147759241,2147424658,2148011702,2147876717,2147641088,2147050752,2148265325,2147194002,102,4,13,16138
1357587627,5813,1007.2999877929688000,49.0329284667968750,676.3317260742188000,4.0888099670410160,53.8858413696289060,53,99,88,80,82,15036,2147755840,2147425188,2148011264,2147876644,2147643693,2147051456,2148263030,2147197549,293,4,13,42434
1357588855,5808,1007.0999755859375000,48.9240989685058600,676.3707885742188000,4.0875167846679690,53.8960800170898440,53,100,88,79,81,15098,2147758372,2147424786,2148010057,2147873737,2147641051,2147052178,2148262884,2147196013,3133,4,13,58661
